Wind_Speed
18 18 19 20 22 23 24 25 25 25 24 23 22 21 20 19 18 17 17 17 17 17 18 19 20 21 21 22 23 23 23 23 23 24 25 25 26 27 28 28 28 29 28 28
17 18 20 21 22 22 23 24 23 23 23 23 22 22 21 20 18 18 17 17 17 18 19 20 21 23 23 23 23 23 24 25 25 25 26 27 28 28 29 29 29 29 29 29
16 17 19 20 21 22 22 22 22 23 23 24 23 22 20 17 17 17 17 17 18 20 21 22 23 23 23 24 24 24 25 26 26 27 28 28 28 29 29 29 29 29 28 27
15 17 19 20 21 21 21 20 20 22 23 23 23 21 18 17 17 16 17 18 19 21 21 22 24 25 25 25 25 25 26 26 27 28 28 29 29 29 29 29 29 28 28 27
15 17 18 19 20 20 20 20 21 21 23 23 22 21 19 18 18 17 17 18 20 22 23 24 24 24 25 26 26 27 27 27 27 28 28 28 29 28 28 29 28 28 27 27
16 17 17 18 20 21 21 22 22 22 22 22 21 21 20 18 18 17 17 19 20 22 23 24 25 25 25 26 27 27 27 26 27 28 28 28 28 28 28 28 27 27 26 25
17 17 18 18 19 20 21 22 22 23 23 22 21 21 20 18 18 18 19 20 21 22 23 24 25 24 24 25 26 25 26 26 27 28 28 28 27 27 27 27 27 26 25 25
17 17 18 18 18 18 19 20 22 23 23 22 21 21 20 19 20 20 21 22 22 23 24 25 24 23 24 24 25 25 25 26 27 27 27 27 26 26 26 26 26 25 24 24
16 17 17 18 18 18 18 19 20 22 22 22 21 21 20 19 20 21 22 22 23 24 24 24 24 23 23 23 24 23 24 25 26 26 25 25 25 25 25 24 24 24 24 23
14 16 17 18 18 18 18 19 20 21 22 22 21 20 19 19 20 21 22 22 23 23 24 23 23 22 21 22 22 23 24 25 26 25 24 24 24 24 24 24 24 24 23 23
14 15 16 17 18 18 19 20 21 21 22 22 22 20 19 20 20 21 22 22 21 22 22 22 22 21 21 21 21 22 23 23 24 24 24 24 24 23 23 23 23 23 23 23
16 16 16 16 17 18 19 19 20 21 21 22 22 21 20 21 21 21 22 21 22 22 21 20 20 20 20 19 20 21 22 22 22 22 22 22 22 22 22 22 22 21 22 22
16 17 17 16 17 18 19 19 20 21 22 22 22 21 21 21 22 22 22 22 22 21 20 19 20 19 20 20 20 20 20 20 20 20 20 20 20 20 20 20 20 20 20 20
16 17 17 17 17 18 18 19 20 20 21 22 21 21 21 21 22 22 22 22 22 20 20 19 19 18 19 20 20 19 19 19 19 19 18 19 19 19 19 19 18 18 18 17
18 18 17 17 17 18 18 19 19 20 21 21 21 22 21 21 21 21 22 22 21 20 19 19 18 18 19 19 18 18 18 18 18 18 17 18 18 18 18 17 17 16 16 16
18 18 18 17 17 17 17 18 19 19 20 21 20 20 20 21 21 21 21 20 19 19 18 17 16 16 17 17 17 17 16 17 17 16 16 17 16 17 17 17 17 17 16 15
17 18 18 17 16 16 16 16 18 19 19 20 20 19 20 20 20 19 19 19 18 17 17 16 15 15 16 16 15 14 14 14 15 15 15 15 15 15 15 16 15 15 14 13
16 16 17 17 16 17 15 16 17 18 18 19 19 19 19 19 19 19 19 18 17 15 14 14 13 14 14 14 13 12 13 13 13 13 14 14 14 14 14 14 13 13 12 12
16 16 17 17 16 15 13 14 14 15 16 17 17 17 17 17 17 17 17 16 15 13 12 12 12 12 12 11 11 11 11 12 12 12 13 13 13 12 12 12 12 12 12 12
14 15 15 15 16 15 13 13 12 12 12 13 14 14 15 15 15 15 14 13 13 12 11 11 11 11 10 10 10 10 10 11 11 11 11 11 11 11 11 11 11 11 11 12
13 13 14 14 14 14 13 12 11 11 10 10 11 12 13 14 13 12 12 11 11 11 10 10 9 9 8 9 9 10 10 9 10 10 10 11 11 10 10 10 10 10 11 11
13 13 13 13 12 12 11 11 11 10 10 9 9 10 11 11 11 10 10 9 9 9 8 8 8 8 8 9 9 9 8 9 9 10 10 10 10 10 10 9 10 10 11 11
12 12 11 11 10 10 10 10 10 9 9 8 9 9 9 9 8 9 9 8 8 8 7 8 8 8 8 8 8 8 8 8 9 9 9 9 10 9 9 10 10 10 10 10
11 10 10 9 9 9 9 9 8 8 8 8 7 7 7 7 7 6 7 7 7 7 7 7 8 8 8 8 8 7 7 7 8 8 8 8 9 9 9 9 10 10 10 10
10 10 9 9 9 8 8 7 6 6 7 7 6 6 5 5 5 5 6 6 6 6 6 6 6 6 6 7 7 7 7 7 7 8 8 8 8 8 9 9 10 10 10 10
10 9 8 7 7 7 6 5 5 5 5 5 4 4 3 4 5 5 5 5 5 5 5 5 6 6 6 6 6 6 6 6 7 7 8 7 7 7 8 9 9 10 11 11
Wind_Direction
208 207 210 209 210 214 217 220 224 230 236 240 244 247 248 252 258 263 270 276 279 281 286 288 289 292 288 289 290 289 289 290 290 291 293 292 294 294 293 292 291 290 288 286
206 207 210 211 213 215 218 223 228 232 238 244 247 250 252 255 261 265 270 276 279 284 289 289 290 293 292 290 290 290 290 290 292 293 294 294 295 296 293 292 292 290 289 287
206 209 211 214 215 216 219 224 228 233 240 247 249 251 252 254 261 267 272 276 281 286 290 292 294 294 293 293 293 292 291 291 291 293 293 294 295 296 294 292 291 291 290 288
207 211 215 216 217 220 222 226 231 237 244 248 250 250 249 254 263 270 274 279 283 287 290 292 293 293 293 292 293 292 291 291 291 293 294 295 295 296 295 295 294 292 291 289
213 215 216 217 219 222 222 226 232 238 244 249 253 257 256 260 267 274 279 285 286 287 287 290 291 292 293 292 292 290 291 290 290 291 294 296 295 296 295 294 294 293 291 288
213 215 219 221 223 224 224 229 236 241 246 251 255 262 264 268 273 278 284 289 291 290 288 291 292 293 293 292 293 291 294 293 293 293 295 296 296 296 296 296 296 295 292 289
214 217 221 225 229 229 231 235 240 243 248 253 258 265 271 275 276 281 284 287 289 289 288 291 292 292 291 292 294 293 295 295 295 297 297 297 296 297 296 295 295 293 291 290
217 218 224 229 233 235 236 240 245 249 253 258 261 266 274 278 280 284 285 286 289 290 289 290 290 290 291 293 294 295 295 296 296 297 299 299 300 299 298 297 295 293 291 291
223 223 228 232 236 239 242 244 249 253 258 266 270 272 274 278 281 284 286 288 292 293 292 290 289 291 292 294 294 294 295 298 299 299 301 302 303 303 301 299 297 296 295 294
231 229 230 234 238 242 247 250 254 258 264 270 274 276 278 282 283 286 289 292 294 296 295 293 291 292 294 296 297 298 298 298 301 302 304 304 303 302 301 300 299 298 295 295
237 237 236 236 238 245 249 253 256 261 266 273 277 279 283 285 288 290 293 295 297 300 300 297 294 296 295 296 297 298 300 301 303 304 303 303 304 302 302 301 299 298 295 294
242 243 242 244 245 248 252 256 257 260 265 272 276 281 282 286 288 290 292 296 299 301 302 300 299 298 297 297 298 300 302 303 305 306 306 306 305 305 305 303 302 299 296 295
246 245 244 244 249 253 255 257 260 263 268 273 277 281 281 286 289 290 293 297 300 302 302 300 300 298 298 300 301 302 303 305 307 308 309 309 309 309 309 308 307 304 301 300
248 249 249 251 255 257 258 261 262 264 268 273 276 277 280 285 289 292 294 297 299 300 302 301 299 298 303 304 302 301 305 308 309 309 311 313 312 312 313 314 311 307 306 304
248 251 251 252 255 256 257 258 260 262 267 272 276 276 281 285 288 292 295 297 298 299 301 301 301 303 305 304 302 304 307 309 310 310 313 315 316 315 315 315 313 313 312 309
246 250 251 253 254 255 257 260 262 263 267 272 275 277 280 284 289 293 295 297 298 299 301 300 301 304 306 305 304 305 307 309 309 311 313 315 318 320 318 316 315 317 316 313
246 250 252 252 253 255 260 266 265 266 269 273 275 279 282 285 288 290 292 294 297 299 299 299 300 304 308 309 310 309 310 311 311 313 315 319 322 323 324 323 322 323 323 320
245 250 254 255 256 259 263 266 268 268 269 272 275 278 281 283 288 291 295 298 296 297 297 300 303 307 312 311 311 312 315 315 314 315 318 320 322 325 326 328 330 332 334 332
247 250 256 257 260 263 265 270 272 272 272 272 275 278 281 283 288 292 296 300 297 298 298 301 305 311 316 314 313 314 317 320 321 321 321 323 326 329 332 335 339 340 340 340
246 250 256 259 259 262 266 271 274 277 278 278 278 279 279 282 290 296 299 301 299 299 300 303 304 308 313 320 318 317 318 320 323 324 324 328 332 335 339 341 341 344 346 348
245 250 255 256 260 262 265 269 273 277 282 283 285 284 283 286 290 295 300 301 302 299 300 304 307 309 317 323 322 322 323 323 326 328 329 333 338 340 342 343 346 351 352 352
248 251 251 255 257 259 261 262 268 275 279 284 289 289 289 291 292 294 298 300 301 302 302 308 312 315 317 320 322 325 325 325 328 329 332 337 339 340 343 345 347 348 351 353
247 246 246 247 251 254 257 262 268 272 276 283 290 293 297 299 298 298 298 302 303 306 304 306 310 312 314 317 318 322 328 330 331 329 336 344 347 347 347 349 352 353 353 356
242 241 242 243 250 253 256 262 267 269 272 277 285 296 304 308 311 312 309 310 309 306 307 307 309 311 314 316 319 322 327 333 339 343 347 346 350 352 354 355 355 356 355 354
238 238 240 245 244 246 250 256 263 268 271 276 282 296 308 314 323 324 324 323 324 320 318 317 316 318 320 322 322 325 329 336 344 346 347 348 352 357 357 357 360 1 360 357
230 230 233 231 231 233 236 247 259 269 273 280 283 293 308 325 333 335 338 340 341 339 335 333 333 331 332 334 333 333 336 339 342 346 349 348 348 350 353 357 360 2 3 4
Height
5820 5824 5827 5831 5834 5837 5840 5843 5846 5849 5851 5853 5855 5856 5857 5858 5859 5860 5861 5860 5860 5860 5859 5858 5857 5856 5854 5853 5851 5850 5848 5847 5845 5843 5841 5839 5837 5835 5833 5831 5829 5827 5825 5823
5820 5823 5826 5829 5832 5835 5838 5842 5845 5847 5848 5850 5851 5853 5854 5855 5856 5857 5857 5857 5856 5856 5855 5854 5852 5851 5848 5847 5846 5844 5843 5841 5839 5837 5835 5833 5831 5829 5827 5824 5821 5819 5817 5815
5819 5822 5824 5827 5830 5833 5836 5840 5843 5845 5846 5847 5848 5850 5851 5852 5853 5853 5853 5853 5853 5852 5851 5850 5848 5846 5844 5842 5841 5839 5837 5835 5833 5831 5829 5827 5824 5822 5819 5817 5814 5812 5809 5807
5817 5820 5823 5826 5829 5832 5835 5838 5840 5842 5843 5844 5846 5847 5849 5849 5850 5850 5850 5849 5848 5848 5847 5845 5843 5841 5839 5837 5835 5833 5831 5829 5827 5825 5822 5820 5817 5815 5812 5809 5807 5804 5802 5799
5817 5819 5822 5825 5828 5830 5833 5835 5837 5839 5840 5841 5842 5844 5846 5846 5846 5846 5846 5845 5844 5843 5841 5840 5838 5836 5834 5832 5830 5827 5825 5823 5821 5818 5816 5813 5810 5807 5804 5802 5799 5797 5794 5792
5816 5819 5821 5824 5826 5828 5830 5833 5834 5836 5837 5839 5840 5841 5842 5842 5843 5843 5842 5840 5839 5838 5836 5835 5833 5831 5829 5826 5824 5821 5819 5817 5814 5812 5809 5806 5803 5800 5797 5794 5792 5789 5787 5785
5815 5818 5820 5822 5824 5827 5828 5831 5832 5833 5834 5836 5837 5837 5839 5839 5839 5838 5837 5836 5835 5834 5832 5829 5827 5825 5823 5821 5817 5815 5813 5811 5808 5806 5803 5800 5796 5793 5790 5787 5785 5783 5780 5778
5814 5817 5818 5820 5823 5824 5826 5828 5830 5830 5831 5832 5833 5833 5836 5835 5834 5833 5832 5831 5830 5828 5826 5824 5822 5820 5817 5815 5812 5809 5807 5804 5802 5799 5796 5793 5790 5786 5783 5781 5778 5776 5774 5771
5812 5815 5817 5818 5820 5822 5823 5824 5826 5827 5828 5828 5829 5830 5831 5830 5829 5828 5827 5826 5825 5822 5820 5818 5816 5814 5812 5809 5806 5804 5801 5799 5796 5793 5789 5786 5783 5780 5777 5775 5772 5769 5767 5765
5810 5813 5815 5816 5818 5819 5820 5821 5823 5823 5823 5824 5825 5825 5826 5826 5825 5824 5822 5821 5819 5817 5814 5812 5810 5808 5806 5804 5801 5798 5796 5793 5790 5786 5783 5780 5777 5775 5772 5769 5766 5763 5761 5759
5808 5810 5812 5813 5814 5815 5817 5818 5819 5820 5820 5820 5820 5823 5822 5821 5820 5818 5817 5815 5814 5811 5809 5806 5804 5802 5800 5798 5796 5793 5790 5787 5784 5781 5778 5774 5772 5769 5766 5763 5760 5758 5755 5753
5806 5807 5809 5810 5812 5812 5813 5814 5815 5816 5816 5816 5816 5820 5817 5816 5814 5813 5812 5810 5809 5806 5804 5801 5799 5797 5795 5793 5790 5788 5785 5782 5779 5775 5772 5769 5766 5763 5760 5757 5755 5752 5750 5747
5803 5804 5806 5807 5810 5810 5809 5810 5810 5812 5812 5812 5812 5815 5812 5811 5809 5808 5807 5805 5803 5801 5799 5797 5795 5793 5790 5788 5785 5783 5780 5777 5773 5771 5768 5765 5761 5758 5755 5753 5750 5747 5745 5742
5799 5800 5802 5804 5805 5805 5805 5806 5806 5807 5807 5807 5808 5808 5807 5806 5804 5803 5801 5800 5798 5796 5794 5792 5790 5788 5785 5783 5780 5777 5775 5772 5769 5766 5763 5760 5757 5754 5751 5749 5746 5743 5740 5737
5795 5797 5798 5799 5800 5800 5801 5802 5803 5803 5803 5803 5804 5803 5802 5801 5800 5798 5797 5795 5793 5791 5789 5787 5785 5783 5780 5778 5775 5773 5770 5768 5765 5762 5759 5756 5753 5750 5748 5745 5742 5739 5736 5733
5791 5792 5794 5795 5795 5796 5797 5798 5798 5798 5799 5799 5798 5798 5797 5796 5795 5793 5792 5790 5788 5787 5785 5782 5780 5778 5776 5773 5771 5768 5766 5764 5761 5758 5756 5753 5750 5747 5744 5742 5739 5736 5733 5730
5787 5789 5790 5791 5791 5792 5793 5794 5794 5794 5794 5794 5794 5794 5793 5792 5790 5788 5787 5786 5784 5782 5780 5778 5776 5774 5772 5769 5767 5765 5762 5760 5758 5755 5753 5750 5748 5745 5742 5739 5736 5734 5731 5728
5784 5785 5786 5787 5788 5789 5792 5790 5790 5790 5790 5789 5789 5789 5788 5787 5786 5784 5783 5781 5780 5778 5776 5774 5772 5770 5768 5766 5764 5762 5760 5757 5755 5753 5751 5748 5746 5743 5740 5737 5735 5732 5729 5727
5780 5782 5782 5783 5784 5785 5787 5786 5786 5786 5786 5785 5784 5784 5783 5782 5781 5780 5779 5777 5776 5774 5772 5771 5769 5767 5765 5763 5761 5759 5757 5755 5753 5751 5749 5746 5744 5741 5738 5736 5734 5731 5729 5726
5777 5778 5780 5780 5781 5782 5784 5783 5782 5783 5782 5781 5780 5779 5779 5778 5777 5777 5775 5773 5772 5770 5769 5767 5766 5765 5763 5761 5759 5757 5755 5753 5751 5749 5747 5744 5742 5739 5737 5735 5733 5731 5728 5726
5775 5775 5776 5777 5777 5778 5780 5779 5780 5781 5781 5778 5777 5776 5775 5775 5774 5773 5771 5770 5768 5767 5766 5765 5763 5762 5761 5759 5757 5755 5753 5752 5750 5747 5745 5743 5741 5739 5736 5734 5732 5730 5728 5726
5772 5772 5773 5774 5775 5778 5777 5777 5777 5777 5776 5775 5774 5773 5772 5771 5770 5769 5768 5767 5766 5764 5763 5762 5761 5760 5759 5757 5756 5754 5752 5750 5748 5746 5744 5742 5740 5738 5736 5734 5732 5730 5728 5726
5769 5770 5771 5772 5774 5774 5773 5774 5774 5774 5773 5773 5772 5771 5770 5769 5768 5767 5765 5764 5763 5762 5761 5760 5759 5758 5757 5755 5754 5752 5750 5749 5747 5745 5743 5742 5740 5738 5736 5734 5732 5730 5728 5726
5767 5767 5768 5769 5770 5770 5771 5771 5771 5771 5771 5771 5770 5769 5768 5767 5766 5764 5763 5762 5761 5760 5759 5758 5757 5756 5755 5753 5752 5751 5749 5748 5746 5744 5743 5741 5739 5738 5736 5734 5732 5730 5728 5726
5764 5765 5766 5767 5768 5768 5769 5769 5769 5769 5769 5768 5768 5767 5766 5765 5764 5763 5761 5760 5759 5758 5757 5756 5755 5754 5753 5752 5750 5749 5748 5747 5745 5744 5742 5741 5739 5738 5736 5734 5732 5731 5729 5727
5762 5764 5764 5765 5766 5766 5767 5767 5767 5767 5767 5766 5766 5765 5765 5764 5763 5762 5761 5759 5758 5757 5756 5755 5754 5752 5751 5750 5749 5748 5747 5746 5745 5743 5742 5741 5739 5738 5736 5735 5733 5731 5729 5727